[[{"header":{"parameterUnit":"m.s-1","parameterCategory":2,"la1":30.2991,"la2":30.254,"lo1":-89.0895,"lo2":-89.0444,"dy":0.0017,"dx":0.0017,"nx":28,"ny":28,"refTime":"2025-02-12T09:00:00:Z","depth":"0","parameterNumber":2,"parameterNumberName":"U-component_of_CURRENTS"},"data":[0,0,0,0,0,0,0,0,0,0,0,0,0,0,0,0,0,0,0,0,0,0,0,0,0,0,0,0,0,0,0,0,0,0,0,0,0,0,0,0,0,0,0,0,0,0,0,0,0,0,0,0,0,0,0,0,0,0,0.2055,0.2055,0,0.2038,0.2038,0.2037,0.2014,0.2014,0.2013,0.2013,0.1979,0.1978,0.1977,0,0,0,0,0,0,0,0,0,0,0,0,0,0.2069,0.2069,0.2055,0.2055,0.2055,0.2038,0.2038,0.2037,0.2014,0.2014,0.2013,0.2013,0.1979,0.1978,0.1977,0,0,0,0,0,0,0,0,0,0,0,0,0,0.2057,0.2069,0.2055,0.2042,0.2041,0.2038,0.2038,0.2037,0.2014,0.2014,0.2013,0.2013,0.1979,0.1978,0.1977,0.1978,0,0,0.1974,0.1973,0,0,0,0,0,0,0,0,0.2058,0.2056,0.2044,0.2043,0.2042,0.2029,0.203,0.2017,0.2014,0.2022,0.2013,0.2013,0.1995,0.1993,0.1988,0.1976,0.1975,0.1974,0.1973,0.1973,0.1972,0,0,0,0,0,0,0,0.2059,0.2057,0.2046,0.2044,0.2043,0.2039,0.2036,0.2028,0.2009,0.2022,0.202,0.2021,0.1994,0.1989,0.1987,0.1974,0.1974,0.1973,0.1972,0.1972,0.199,0.1991,0,0,0,0,0,0,0.2064,0.2058,0.2047,0.2046,0.2051,0.2039,0.2036,0.2032,0.201,0.2007,0.2022,0.202,0.1991,0.1989,0.1986,0.201,0.1973,0.1972,0.1971,0.1989,0.199,0.1991,0,0,0,0,0,0,0.2065,0.2063,0.2048,0.2053,0.2051,0.2039,0.2035,0.2032,0.2031,0.201,0.2007,0.2024,0.1991,0.1987,0.1988,0.2008,0.1971,0.197,0.1988,0.1989,0.1991,0.2043,0,0,0,0,0,0,0.2065,0.2064,0.2065,0.2054,0.2051,0.2054,0.2035,0.2032,0.2033,0.2031,0.2011,0.2007,0.199,0.199,0.1987,0.2005,0.1969,0.1986,0.1988,0.199,0.2039,0.2046,0.2051,0,0,0,0,0,0.2066,0.2067,0.2065,0.2064,0.2052,0.2054,0.2053,0.2042,0.2033,0.2038,0.2027,0.2008,0.2002,0.199,0.1987,0.2005,0.1985,0.1988,0.199,0.2037,0.2045,0.2051,0,0,0,0,0,0,0.2073,0.2065,0.2062,0.206,0.2063,0.2051,0.2053,0.2048,0.2042,0.204,0.2018,0.2014,0.2024,0.2009,0.1997,0.2018,0.1992,0.1994,0.2029,0.2036,0.2042,0.2049,0.1969,0,0,0,0,0,0.2077,0.2075,0.2071,0.2072,0.2074,0.2066,0.2066,0.2061,0.2055,0.2052,0.2038,0.203,0.2031,0.2029,0.2024,0.2032,0.2034,0.2043,0.2049,0.2054,0.2059,0.2086,0.2094,0.2,0.2,0.2,0,0,0.2079,0.2076,0.2074,0.2074,0.2072,0.2081,0.2064,0.2069,0.2078,0.2049,0.2054,0.2049,0.2039,0.205,0.2054,0.204,0.2084,0.2057,0.2062,0.2063,0.2089,0.2098,0.2107,0.2001,0.2001,0.2001,0,0,0.2088,0.2082,0.2086,0.2091,0.2096,0.2095,0.21,0.2096,0.2095,0.2103,0.209,0.2099,0.2089,0.2092,0.2092,0.2128,0.2115,0.2126,0.2159,0.2185,0.2193,0.22,0.2222,0.223,0.2128,0.2128,0.2128,0,0.2095,0.2096,0.209,0.2101,0.2106,0.2104,0.2117,0.212,0.2118,0.2126,0.2112,0.2125,0.2113,0.2139,0.215,0.2142,0.2151,0.2131,0.2193,0.22,0.2207,0.2227,0.2236,0.213,0.213,0.213,0.213,0,0.2108,0.2113,0.2118,0.2129,0.2137,0.2148,0.2155,0.2165,0.2165,0.217,0.2194,0.2186,0.2195,0.2196,0.2181,0.2223,0.2214,0.2199,0.2175,0.2219,0.2238,0.2246,0.2134,0.2133,0.2133,0.2132,0,0,0.2114,0.2125,0.2127,0.2135,0.2152,0.2159,0.2184,0.2207,0.223,0.2234,0.2263,0.2269,0.227,0.227,0.226,0.2278,0.233,0.2258,0.2258,0.2279,0.2389,0.2385,0.2393,0.2325,0.2326,0.2328,0.2387,0,0.2128,0.2147,0.2151,0.2174,0.2185,0.2197,0.2221,0.2244,0.2262,0.2292,0.23,0.2322,0.2297,0.2307,0.2325,0.233,0.2352,0.2315,0.2343,0.2344,0.2335,0.2403,0.2387,0.2439,0.2395,0.2396,0.2397,0,0.2141,0.2152,0.2172,0.2196,0.2203,0.2218,0.226,0.2283,0.233,0.2349,0.2381,0.2384,0.2419,0.2385,0.2428,0.2406,0.2404,0.2403,0.2405,0.2387,0.2355,0.2386,0.2455,0.2451,0.2409,0.2408,0.2407,0,0.2142,0.2165,0.2179,0.2187,0.2217,0.2231,0.2253,0.23,0.2333,0.2389,0.2423,0.2458,0.2483,0.2492,0.249,0.2465,0.2533,0.2498,0.2494,0.2493,0.2478,0.2474,0.2546,0.2531,0.2531,0.2531,0.2531,0,0.2151,0.2164,0.2179,0.2187,0.2213,0.2235,0.2278,0.231,0.2372,0.2416,0.245,0.2493,0.2512,0.2544,0.2528,0.2549,0.2569,0.2519,0.2517,0.2496,0.2493,0.2485,0.2462,0.2533,0.2533,0.2532,0.2532,0,0.2149,0.2159,0.2177,0.2203,0.2211,0.2231,0.2285,0.232,0.2384,0.2445,0.2466,0.2541,0.259,0.2603,0.263,0.2607,0.2571,0.2611,0.2585,0.2579,0.2558,0.2537,0.2468,0.2385,0.2623,0.2624,0.2624,0,0.2147,0.2155,0.2179,0.2187,0.2195,0.2228,0.2252,0.2318,0.2357,0.2466,0.2491,0.2573,0.2629,0.269,0.2677,0.2683,0.259,0.2645,0.2592,0.2578,0.2554,0.2427,0.2352,0.2596,0.2596,0.2596,0.2596,0,0.2144,0.2151,0.2163,0.2178,0.2193,0.2218,0.2255,0.2289,0.2367,0.2435,0.2523,0.2586,0.2674,0.2697,0.2714,0.2698,0.2568,0.2645,0.2646,0.256,0.2412,0.2324,0.253,0.2596,0.2596,0.2596,0.2596,0.2596,0.2137,0.214,0.215,0.2161,0.2176,0.2186,0.219,0.2246,0.231,0.2388,0.2491,0.259,0.2694,0.2737,0.2693,0.2666,0.2573,0.2619,0.2603,0.248,0.2377,0.2583,0.2634,0.2634,0.2634,0.2634,0.2634,0,0.2117,0.212,0.213,0.2127,0.2119,0.2145,0.2171,0.217,0.2212,0.2347,0.2434,0.2598,0.2663,0.2705,0.2726,0.2655,0.2503,0.2601,0.2443,0.2372,0.2601,0.2581,0.2605,0.2605,0.2605,0.2605,0.2605,0.2605,0.2104,0.2098,0.2098,0.2065,0.206,0.2023,0.2023,0.2044,0.2124,0.2236,0.2353,0.246,0.2646,0.2799,0.277,0.2691,0.2486,0.2418,0.2341,0.2572,0.2572,0.2572,0.255,0.2568,0.2568,0.2041,0.2038,0.2035]},{"header":{"parameterUnit":"m.s-1","parameterCategory":2,"la1":30.2991,"la2":30.254,"lo1":-89.0895,"lo2":-89.0444,"dy":0.0017,"dx":0.0017,"nx":28,"ny":28,"refTime":"2025-02-12T09:00:00:Z","depth":"0","parameterNumber":3,"parameterNumberName":"V-component_of_CURRENTS"},"data":[0,0,0,0,0,0,0,0,0,0,0,0,0,0,0,0,0,0,0,0,0,0,0,0,0,0,0,0,0,0,0,0,0,0,0,0,0,0,0,0,0,0,0,0,0,0,0,0,0,0,0,0,0,0,0,0,0,0,-0.0149,-0.0149,0,-0.0168,-0.0168,-0.0168,-0.0188,-0.0188,-0.0188,-0.0189,-0.0213,-0.0214,-0.0214,0,0,0,0,0,0,0,0,0,0,0,0,0,-0.0157,-0.0157,-0.0149,-0.0149,-0.015,-0.0168,-0.0168,-0.0168,-0.0188,-0.0188,-0.0188,-0.0189,-0.0213,-0.0214,-0.0214,0,0,0,0,0,0,0,0,0,0,0,0,0,-0.0163,-0.0157,-0.0149,-0.0161,-0.0163,-0.0167,-0.0168,-0.0168,-0.0188,-0.0188,-0.0188,-0.0189,-0.0213,-0.0214,-0.0214,-0.0211,0,0,-0.0216,-0.0217,0,0,0,0,0,0,0,0,-0.0162,-0.0163,-0.0159,-0.016,-0.0162,-0.0175,-0.018,-0.0183,-0.0188,-0.0179,-0.0189,-0.0189,-0.0201,-0.0202,-0.0206,-0.0212,-0.0213,-0.0216,-0.0217,-0.0217,-0.0217,0,0,0,0,0,0,0,-0.0162,-0.0162,-0.0157,-0.0159,-0.0161,-0.0175,-0.0176,-0.0181,-0.0188,-0.0179,-0.0181,-0.0182,-0.0202,-0.0205,-0.0206,-0.0214,-0.0216,-0.0217,-0.0217,-0.0218,-0.0221,-0.022,0,0,0,0,0,0,-0.0157,-0.0161,-0.0156,-0.0157,-0.0163,-0.0174,-0.0175,-0.0171,-0.0188,-0.019,-0.0182,-0.0183,-0.0204,-0.0206,-0.0207,-0.0195,-0.0217,-0.0218,-0.0218,-0.0221,-0.022,-0.022,0,0,0,0,0,0,-0.0157,-0.0156,-0.0156,-0.016,-0.0161,-0.0173,-0.0169,-0.0171,-0.0175,-0.0189,-0.0192,-0.0183,-0.0204,-0.0206,-0.0208,-0.0196,-0.0218,-0.0219,-0.0221,-0.0221,-0.022,-0.0176,0,0,0,0,0,0,-0.0157,-0.0156,-0.0151,-0.0159,-0.016,-0.0152,-0.0168,-0.0171,-0.0175,-0.0177,-0.0191,-0.0194,-0.0204,-0.0207,-0.0209,-0.0198,-0.0219,-0.0222,-0.0221,-0.022,-0.0178,-0.0174,-0.0171,0,0,0,0,0,-0.0157,-0.0145,-0.0151,-0.015,-0.0153,-0.0151,-0.0153,-0.0164,-0.0174,-0.017,-0.0182,-0.0193,-0.0205,-0.0207,-0.021,-0.0198,-0.0222,-0.0221,-0.022,-0.018,-0.0175,-0.0171,0,0,0,0,0,0,-0.0146,-0.0146,-0.0153,-0.0142,-0.0145,-0.0154,-0.0151,-0.0161,-0.0167,-0.0171,-0.0188,-0.0191,-0.019,-0.0201,-0.0203,-0.0198,-0.0216,-0.0215,-0.0184,-0.018,-0.0176,-0.0162,-0.022,0,0,0,0,0,-0.0142,-0.0133,-0.0138,-0.013,-0.0129,-0.0141,-0.0143,-0.015,-0.0157,-0.016,-0.017,-0.0182,-0.0188,-0.0189,-0.0198,-0.0192,-0.0211,-0.0188,-0.0184,-0.0181,-0.0171,-0.0193,-0.0191,-0.0218,-0.0218,-0.0218,0,0,-0.0137,-0.0135,-0.0131,-0.0127,-0.0131,-0.0119,-0.0143,-0.014,-0.0131,-0.0161,-0.0153,-0.017,-0.0185,-0.018,-0.0181,-0.0187,-0.0185,-0.018,-0.0177,-0.0169,-0.0192,-0.019,-0.0187,-0.0217,-0.0217,-0.0217,0,0,-0.0116,-0.0119,-0.0103,-0.01,-0.0101,-0.0105,-0.0102,-0.0109,-0.0113,-0.011,-0.013,-0.0139,-0.0147,-0.0154,-0.0159,-0.0141,-0.0168,-0.0146,-0.0112,-0.0133,-0.0131,-0.013,-0.0155,-0.0156,-0.0141,-0.0141,-0.0141,0,-0.0111,-0.0089,-0.0099,-0.0081,-0.0072,-0.0094,-0.0072,-0.0078,-0.0085,-0.0082,-0.0101,-0.0116,-0.0133,-0.0124,-0.0119,-0.0131,-0.0151,-0.0125,-0.0128,-0.0127,-0.0126,-0.0153,-0.0155,-0.0139,-0.0139,-0.0139,-0.0139,0,-0.0076,-0.006,-0.0049,-0.0031,-0.0024,-0.001,-0.0014,-0.0014,-0.0026,-0.003,-0.0032,-0.0061,-0.0067,-0.0078,-0.0092,-0.0089,-0.0108,-0.0124,-0.0137,-0.0121,-0.015,-0.0153,-0.0135,-0.0136,-0.0137,-0.0137,0,0,-0.006,-0.003,-0.0026,-0.0005,0.0005,0.0018,0.0032,0.0045,0.0062,0.0036,0.0052,0.0027,0.0006,-0.0002,-0.0028,-0.0047,-0.0065,-0.0078,-0.008,-0.01,-0.0116,-0.0142,-0.0148,-0.0082,-0.0082,-0.0082,-0.0141,0,-0.0029,0.002,0.0024,0.007,0.0096,0.0087,0.0108,0.0114,0.011,0.0118,0.0078,0.0081,0.0037,0.0033,0.0006,-0.0042,-0.0068,-0.0047,-0.0132,-0.0134,-0.0157,-0.0151,-0.0162,-0.0217,-0.0144,-0.0144,-0.0145,0,0.0004,0.0036,0.0089,0.0132,0.0142,0.0163,0.0196,0.0214,0.0215,0.021,0.0195,0.0163,0.0135,0.0088,0.001,0.0025,-0.0039,-0.0086,-0.009,-0.0129,-0.0165,-0.0221,-0.0224,-0.0379,-0.0149,-0.0149,-0.0148,0,0.0031,0.008,0.0127,0.0141,0.0184,0.0203,0.0225,0.0243,0.0275,0.0271,0.0284,0.0235,0.0216,0.0131,0.0027,0.002,-0.0068,-0.0092,-0.0178,-0.0182,-0.0215,-0.022,-0.0372,-0.0151,-0.0151,-0.0151,-0.0151,0,0.0064,0.0101,0.0143,0.0171,0.0232,0.0244,0.0307,0.0317,0.0346,0.0395,0.0337,0.0353,0.0225,0.0157,0.0052,-0.0068,-0.0052,-0.0169,-0.0196,-0.0201,-0.0204,-0.0359,-0.0447,-0.0153,-0.0153,-0.0152,-0.0152,0,0.0084,0.011,0.0171,0.0225,0.0248,0.0292,0.0368,0.0418,0.043,0.0485,0.0485,0.0443,0.0355,0.0218,0.008,-0.0028,-0.0248,-0.0196,-0.0196,-0.0221,-0.0445,-0.0529,-0.0684,-0.0808,-0.0298,-0.0299,-0.03,0,0.0098,0.0132,0.0213,0.0261,0.0288,0.0358,0.0416,0.0456,0.0517,0.0547,0.0581,0.0509,0.0483,0.0266,0.0056,-0.014,-0.029,-0.0288,-0.0306,-0.0459,-0.0573,-0.0613,-0.071,-0.0338,-0.0339,-0.034,-0.034,0,0.0129,0.0157,0.0212,0.0311,0.0381,0.0466,0.0548,0.0608,0.0658,0.0703,0.0744,0.0722,0.0508,0.0315,0.0033,-0.012,-0.0423,-0.0312,-0.0471,-0.0617,-0.067,-0.08,-0.0303,-0.0348,-0.0347,-0.0347,-0.0346,-0.0346,0.0152,0.0197,0.0275,0.0368,0.0456,0.0563,0.0639,0.0729,0.0828,0.09,0.087,0.0866,0.0556,0.0178,-0.006,-0.0496,-0.0492,-0.0612,-0.0702,-0.0727,-0.0852,-0.0373,-0.0446,-0.0446,-0.0445,-0.0445,-0.0445,0,0.0182,0.0239,0.0329,0.0445,0.0547,0.0585,0.0723,0.0803,0.0923,0.0986,0.1021,0.0848,0.0484,0.0078,-0.0484,-0.08,-0.0946,-0.0992,-0.1065,-0.115,-0.0722,-0.0729,-0.0865,-0.0865,-0.0865,-0.0864,-0.0864,-0.0864,0.0201,0.0284,0.0335,0.0498,0.0583,0.0717,0.0798,0.0913,0.0992,0.1049,0.1027,0.0981,0.0608,-0.0284,-0.0968,-0.1153,-0.1434,-0.1458,-0.1617,-0.1327,-0.1298,-0.1271,-0.1299,-0.1552,-0.1553,-0.201,-0.2015,-0.2018]}],[{"header":{"parameterUnit":"m.s-1","parameterCategory":2,"la1":30.2991,"la2":30.254,"lo1":-89.0895,"lo2":-89.0444,"dy":0.0017,"dx":0.0017,"nx":28,"ny":28,"refTime":"2025-02-12T09:00:00:Z","depth":"2","parameterNumber":2,"parameterNumberName":"U-component_of_CURRENTS"},"data":[0,0,0,0,0,0,0,0,0,0,0,0,0,0,0,0,0,0,0,0,0,0,0,0,0,0,0,0,0,0,0,0,0,0,0,0,0,0,0,0,0,0,0,0,0,0,0,0,0,0,0,0,0,0,0,0,0,0,0.2032,0.2032,0,0.2016,0.2015,0.2015,0.1993,0.1992,0.1992,0.1992,0.1959,0.1958,0.1958,0,0,0,0,0,0,0,0,0,0,0,0,0,0.2046,0.2045,0.2032,0.2032,0.2032,0.2016,0.2015,0.2015,0.1993,0.1992,0.1992,0.1992,0.1959,0.1958,0.1958,0,0,0,0,0,0,0,0,0,0,0,0,0,0.2034,0.2045,0.2032,0.202,0.2019,0.2016,0.2015,0.2015,0.1993,0.1992,0.1992,0.1992,0.196,0.1959,0.1958,0.1958,0,0,0.1954,0.1954,0,0,0,0,0,0,0,0,0.2035,0.2033,0.2022,0.2021,0.202,0.2007,0.2008,0.1995,0.1993,0.2001,0.1992,0.1992,0.1975,0.1973,0.1968,0.1956,0.1955,0.1954,0.1954,0.1953,0.1953,0,0,0,0,0,0,0,0.2035,0.2034,0.2024,0.2022,0.2021,0.2016,0.2014,0.2006,0.1988,0.2,0.1999,0.2,0.1974,0.1969,0.1967,0.1954,0.1954,0.1953,0.1953,0.1952,0.1971,0.1972,0,0,0,0,0,0,0.2041,0.2035,0.2024,0.2023,0.2029,0.2017,0.2014,0.201,0.1989,0.1986,0.2,0.1999,0.1971,0.1968,0.1966,0.199,0.1953,0.1952,0.1952,0.197,0.1971,0.1972,0,0,0,0,0,0,0.2042,0.204,0.2025,0.203,0.2028,0.2017,0.2013,0.201,0.2009,0.1989,0.1986,0.2003,0.1971,0.1967,0.1969,0.1988,0.1952,0.1951,0.1968,0.197,0.1971,0.2023,0,0,0,0,0,0,0.2042,0.204,0.2042,0.2031,0.2028,0.2031,0.2013,0.201,0.2011,0.2009,0.199,0.1987,0.197,0.197,0.1968,0.1986,0.195,0.1967,0.1969,0.1971,0.202,0.2026,0.2032,0,0,0,0,0,0.2042,0.2044,0.2042,0.2041,0.203,0.2032,0.203,0.202,0.2012,0.2016,0.2006,0.1987,0.1982,0.197,0.1967,0.1985,0.1966,0.1968,0.1971,0.2017,0.2025,0.2031,0,0,0,0,0,0,0.205,0.2042,0.2039,0.2038,0.204,0.2029,0.2031,0.2026,0.2021,0.2019,0.1997,0.1994,0.2004,0.1989,0.1977,0.1998,0.1973,0.1974,0.2009,0.2016,0.2022,0.2029,0.1949,0,0,0,0,0,0.2054,0.2052,0.2049,0.2049,0.2051,0.2043,0.2043,0.204,0.2033,0.203,0.2018,0.201,0.2011,0.2009,0.2004,0.2012,0.2014,0.2024,0.2029,0.2034,0.2039,0.2065,0.2074,0.198,0.198,0.198,0,0,0.2056,0.2053,0.2051,0.2051,0.2049,0.2059,0.2042,0.2047,0.2056,0.2028,0.2034,0.2028,0.2018,0.203,0.2034,0.202,0.2064,0.2038,0.2042,0.2044,0.2069,0.2078,0.2086,0.1982,0.1982,0.1981,0,0,0.2065,0.206,0.2064,0.2069,0.2074,0.2073,0.2078,0.2074,0.2073,0.2082,0.2069,0.2079,0.2069,0.2072,0.2071,0.2108,0.2095,0.2105,0.2138,0.2164,0.2172,0.2179,0.22,0.2209,0.2107,0.2107,0.2107,0,0.2072,0.2074,0.2068,0.2078,0.2084,0.2082,0.2095,0.2098,0.2096,0.2104,0.2091,0.2104,0.2093,0.2118,0.213,0.2121,0.2131,0.2111,0.2172,0.2179,0.2185,0.2205,0.2214,0.211,0.211,0.211,0.2109,0,0.2085,0.209,0.2095,0.2106,0.2115,0.2125,0.2132,0.2143,0.2143,0.2149,0.2173,0.2164,0.2174,0.2175,0.216,0.2202,0.2193,0.2178,0.2154,0.2198,0.2216,0.2224,0.2114,0.2113,0.2112,0.2112,0,0,0.2092,0.2102,0.2104,0.2113,0.213,0.2136,0.2161,0.2183,0.2207,0.2211,0.2241,0.2247,0.2248,0.2248,0.2238,0.2256,0.2307,0.2236,0.2236,0.2257,0.2366,0.236,0.2368,0.2303,0.2304,0.2305,0.2363,0,0.2106,0.2124,0.2128,0.2151,0.2162,0.2173,0.2197,0.222,0.2239,0.2268,0.2277,0.2299,0.2274,0.2285,0.2303,0.2308,0.233,0.2293,0.232,0.2321,0.231,0.2377,0.2123,0.2154,0.2371,0.2372,0.2373,0,0.2118,0.2129,0.2149,0.2173,0.2179,0.2195,0.2236,0.2259,0.2306,0.2325,0.2357,0.2361,0.2395,0.2362,0.2404,0.2383,0.238,0.2379,0.2381,0.2363,0.233,0.2144,0.216,0.2386,0.2385,0.2384,0.2383,0,0.212,0.2143,0.2157,0.2164,0.2194,0.2208,0.223,0.2277,0.2309,0.2365,0.2399,0.2434,0.2459,0.2468,0.2465,0.2441,0.2508,0.2473,0.2467,0.2466,0.2249,0.2227,0.2505,0.2505,0.2505,0.2505,0.2505,0,0.2129,0.2142,0.2157,0.2165,0.2191,0.2213,0.2255,0.2288,0.2349,0.2393,0.2426,0.2468,0.2487,0.2519,0.2503,0.2522,0.2542,0.2492,0.249,0.2261,0.2241,0.2434,0.2425,0.2507,0.2507,0.2506,0.2506,0,0.2128,0.2138,0.2155,0.2181,0.219,0.221,0.2263,0.2297,0.2361,0.2422,0.2443,0.2516,0.2564,0.2577,0.2603,0.2579,0.2587,0.2582,0.2318,0.2285,0.2517,0.251,0.2591,0.2592,0.2592,0.2592,0.2593,0,0.2126,0.2134,0.2158,0.2166,0.2174,0.2208,0.2231,0.2296,0.2335,0.2442,0.2467,0.2547,0.2592,0.265,0.2581,0.257,0.262,0.2365,0.2279,0.2541,0.253,0.2523,0.2515,0.2003,0.1998,0.1995,0.1992,0,0.2124,0.2131,0.2143,0.2158,0.2173,0.2197,0.2234,0.2268,0.2344,0.2399,0.2484,0.2537,0.2573,0.2452,0.2444,0.2398,0.2348,0.2294,0.2626,0.2042,0.1997,0.1984,0.1993,0.1958,0.1962,0.1964,0.1966,0.1967,0.2117,0.212,0.213,0.2142,0.2156,0.2165,0.217,0.2174,0.2218,0.2209,0.2367,0.2319,0.2329,0.2178,0.2116,0.2041,0.2211,0.2093,0.2099,0.211,0.2053,0.2014,0.1967,0.197,0.1973,0.1976,0.1978,0,0.2075,0.2101,0.2111,0.2108,0.2069,0.2125,0.215,0.2069,0.2029,0.2023,0.2033,0.1853,0.1779,0.1792,0.1617,0.165,0.1572,0.1597,0.1452,0.1487,0.1518,0.1425,0.1175,0.1173,0.1171,0.1169,0,0,0.2057,0.2038,0.2038,0.1987,0.2004,0.1908,0.1905,0.1794,0.1724,0.1592,0.1522,0.159,0.1705,0.1381,0.1365,0.124,0.1345,0.1186,0.1825,0.1685,0.1713,0.1801,0.1701,0,0,0,0,0]},{"header":{"parameterUnit":"m.s-1","parameterCategory":2,"la1":30.2991,"la2":30.254,"lo1":-89.0895,"lo2":-89.0444,"dy":0.0017,"dx":0.0017,"nx":28,"ny":28,"refTime":"2025-02-12T09:00:00:Z","depth":"2","parameterNumber":3,"parameterNumberName":"V-component_of_CURRENTS"},"data":[0,0,0,0,0,0,0,0,0,0,0,0,0,0,0,0,0,0,0,0,0,0,0,0,0,0,0,0,0,0,0,0,0,0,0,0,0,0,0,0,0,0,0,0,0,0,0,0,0,0,0,0,0,0,0,0,0,0,-0.0089,-0.0089,0,-0.0106,-0.0106,-0.0107,-0.0127,-0.0127,-0.0128,-0.0128,-0.0152,-0.0153,-0.0153,0,0,0,0,0,0,0,0,0,0,0,0,0,-0.0097,-0.0097,-0.0089,-0.0089,-0.0089,-0.0106,-0.0107,-0.0107,-0.0127,-0.0127,-0.0128,-0.0128,-0.0152,-0.0153,-0.0153,0,0,0,0,0,0,0,0,0,0,0,0,0,-0.0102,-0.0097,-0.0089,-0.0101,-0.0102,-0.0106,-0.0107,-0.0107,-0.0127,-0.0127,-0.0128,-0.0128,-0.0152,-0.0153,-0.0153,-0.0149,0,0,-0.0155,-0.0155,0,0,0,0,0,0,0,0,-0.0102,-0.0102,-0.0099,-0.01,-0.0102,-0.0115,-0.0119,-0.0121,-0.0127,-0.0118,-0.0128,-0.0128,-0.014,-0.0141,-0.0144,-0.015,-0.0151,-0.0155,-0.0155,-0.0156,-0.0156,0,0,0,0,0,0,0,-0.0102,-0.0101,-0.0096,-0.0099,-0.0101,-0.0114,-0.0115,-0.0119,-0.0127,-0.0119,-0.012,-0.0121,-0.0141,-0.0144,-0.0145,-0.0151,-0.0155,-0.0156,-0.0156,-0.0156,-0.0158,-0.0157,0,0,0,0,0,0,-0.0097,-0.0101,-0.0095,-0.0096,-0.0102,-0.0113,-0.0115,-0.011,-0.0127,-0.0129,-0.0121,-0.0122,-0.0142,-0.0144,-0.0146,-0.0134,-0.0156,-0.0156,-0.0157,-0.0158,-0.0158,-0.0157,0,0,0,0,0,0,-0.0097,-0.0096,-0.0095,-0.0099,-0.01,-0.0113,-0.0108,-0.011,-0.0114,-0.0128,-0.0131,-0.0123,-0.0143,-0.0145,-0.0147,-0.0135,-0.0156,-0.0157,-0.0158,-0.0158,-0.0157,-0.0114,0,0,0,0,0,0,-0.0097,-0.0096,-0.0091,-0.0099,-0.01,-0.0091,-0.0107,-0.011,-0.0114,-0.0116,-0.013,-0.0133,-0.0143,-0.0146,-0.0147,-0.0136,-0.0157,-0.0159,-0.0158,-0.0158,-0.0116,-0.0113,-0.0109,0,0,0,0,0,-0.0097,-0.0085,-0.0091,-0.009,-0.0093,-0.009,-0.0091,-0.0103,-0.0114,-0.0109,-0.0122,-0.0133,-0.0143,-0.0146,-0.0148,-0.0137,-0.0159,-0.0158,-0.0158,-0.0118,-0.0113,-0.0109,0,0,0,0,0,0,-0.0087,-0.0086,-0.0093,-0.0082,-0.0084,-0.0093,-0.0091,-0.01,-0.0107,-0.011,-0.0127,-0.013,-0.0129,-0.0139,-0.0142,-0.0137,-0.0154,-0.0153,-0.0123,-0.0119,-0.0115,-0.0101,-0.0158,0,0,0,0,0,-0.0082,-0.0074,-0.0078,-0.007,-0.0069,-0.0081,-0.0082,-0.0089,-0.0096,-0.01,-0.011,-0.0121,-0.0127,-0.0128,-0.0136,-0.013,-0.0149,-0.0125,-0.0122,-0.0119,-0.0109,-0.0131,-0.0129,-0.0155,-0.0155,-0.0155,0,0,-0.0078,-0.0076,-0.0072,-0.0067,-0.0071,-0.0059,-0.0083,-0.008,-0.0071,-0.0101,-0.0093,-0.011,-0.0124,-0.0118,-0.0119,-0.0125,-0.0123,-0.0118,-0.0115,-0.0107,-0.013,-0.0128,-0.0126,-0.0154,-0.0154,-0.0155,0,0,-0.0057,-0.006,-0.0044,-0.0041,-0.0042,-0.0045,-0.0043,-0.005,-0.0054,-0.0051,-0.007,-0.0079,-0.0087,-0.0092,-0.0097,-0.0079,-0.0106,-0.0084,-0.0051,-0.0072,-0.007,-0.0069,-0.0095,-0.0096,-0.0079,-0.0079,-0.0079,0,-0.0052,-0.0031,-0.004,-0.0022,-0.0013,-0.0035,-0.0013,-0.0018,-0.0026,-0.0022,-0.0042,-0.0056,-0.0072,-0.0063,-0.0058,-0.007,-0.009,-0.0064,-0.0067,-0.0066,-0.0065,-0.0093,-0.0094,-0.0077,-0.0077,-0.0078,-0.0078,0,-0.0018,-0.0001,0.0009,0.0027,0.0035,0.0049,0.0045,0.0045,0.0033,0.0029,0.0027,-0.0001,-0.0007,-0.0017,-0.0032,-0.0028,-0.0048,-0.0063,-0.0076,-0.006,-0.009,-0.0093,-0.0074,-0.0075,-0.0075,-0.0076,0,0,-0.0003,0.0029,0.0032,0.0053,0.0064,0.0077,0.0091,0.0104,0.0121,0.0095,0.011,0.0087,0.0065,0.0058,0.0032,0.0012,-0.0006,-0.0018,-0.002,-0.0041,-0.0058,-0.0084,-0.009,-0.0023,-0.0023,-0.0023,-0.0083,0,0.0028,0.0077,0.0082,0.0128,0.0155,0.0145,0.0167,0.0173,0.0169,0.0177,0.0137,0.014,0.0096,0.0091,0.0065,0.0017,-0.0009,0.0012,-0.0073,-0.0075,-0.0098,-0.0093,-0.0042,-0.0092,-0.0086,-0.0086,-0.0086,0,0.0061,0.0094,0.0146,0.019,0.02,0.0221,0.0254,0.0273,0.0274,0.0268,0.0253,0.0221,0.0192,0.0146,0.0068,0.0083,0.0019,-0.0028,-0.0032,-0.0071,-0.0106,-0.0106,-0.0097,-0.0091,-0.0091,-0.009,-0.009,0,0.0087,0.0137,0.0184,0.0198,0.0242,0.0261,0.0283,0.0301,0.0333,0.0328,0.0341,0.0292,0.0272,0.0187,0.0084,0.0077,-0.0011,-0.0035,-0.0121,-0.0124,-0.0104,-0.0105,-0.0094,-0.0094,-0.0094,-0.0094,-0.0093,0,0.012,0.0156,0.0199,0.0227,0.0288,0.0301,0.0364,0.0373,0.0403,0.0451,0.0393,0.0408,0.0281,0.0213,0.0108,-0.0012,0.0004,-0.0113,-0.0139,-0.0089,-0.0088,-0.0104,-0.0104,-0.0096,-0.0095,-0.0095,-0.0095,0,0.0139,0.0166,0.0226,0.0281,0.0303,0.0348,0.0423,0.0473,0.0485,0.054,0.0539,0.0496,0.0408,0.0272,0.0135,0.0027,-0.0091,-0.0141,-0.0078,-0.0096,-0.0198,-0.0196,-0.0241,-0.0242,-0.0243,-0.0244,-0.0245,0,0.0153,0.0186,0.0268,0.0315,0.0342,0.0412,0.0471,0.0511,0.0571,0.06,0.0633,0.0561,0.0534,0.0318,0.0128,-0.0062,-0.0103,-0.0168,-0.0177,-0.0191,-0.0212,-0.0207,-0.0203,-0.0135,-0.0135,-0.0135,-0.0135,0,0.0183,0.0211,0.0266,0.0365,0.0434,0.052,0.0601,0.0661,0.0711,0.0756,0.0795,0.0772,0.0576,0.0408,0.0133,0.0003,-0.0135,-0.0174,-0.0194,-0.0109,-0.0097,-0.0116,-0.0114,-0.0134,-0.0134,-0.0134,-0.0134,-0.0134,0.0205,0.025,0.0328,0.0421,0.0509,0.0615,0.0691,0.0794,0.0894,0.0973,0.0922,0.09,0.0684,0.0364,0.0134,-0.0117,-0.0118,-0.0211,-0.0209,-0.0207,-0.0188,-0.0178,-0.0227,-0.0228,-0.0228,-0.0229,-0.0229,0,0.0254,0.0292,0.0381,0.0497,0.0618,0.0637,0.0774,0.0882,0.1019,0.106,0.1093,0.0907,0.0695,0.0433,0.0087,-0.0137,-0.0138,-0.0224,-0.0166,-0.0165,-0.0165,-0.0141,-0.017,-0.017,-0.0171,-0.0171,0,0,0.0278,0.037,0.042,0.0591,0.0658,0.0827,0.0908,0.1051,0.1133,0.1212,0.1182,0.1097,0.0775,0.053,0.0239,0.0036,-0.0019,-0.0009,-0.0029,0.0076,0.0079,-0.0129,-0.0088,0,0,0,0,0]}],[{"header":{"parameterUnit":"m.s-1","parameterCategory":2,"la1":30.2991,"la2":30.254,"lo1":-89.0895,"lo2":-89.0444,"dy":0.0017,"dx":0.0017,"nx":28,"ny":28,"refTime":"2025-02-12T09:00:00:Z","depth":"4","parameterNumber":2,"parameterNumberName":"U-component_of_CURRENTS"},"data":[0,0,0,0,0,0,0,0,0,0,0,0,0,0,0,0,0,0,0,0,0,0,0,0,0,0,0,0,0,0,0,0,0,0,0,0,0,0,0,0,0,0,0,0,0,0,0,0,0,0,0,0,0,0,0,0,0,0,0.1124,0.1125,0,0.1165,0.1166,0.1166,0.12,0.1201,0.1201,0.1202,0.1253,0.1254,0.1255,0,0,0,0,0,0,0,0,0,0,0,0,0,0.1077,0.1078,0.1124,0.1125,0.1126,0.1165,0.1166,0.1166,0.12,0.1201,0.1201,0.1202,0.1253,0.1254,0.1255,0,0,0,0,0,0,0,0,0,0,0,0,0,0.1105,0.1078,0.1124,0.1148,0.1151,0.1165,0.1166,0.1166,0.12,0.1201,0.1201,0.1202,0.1253,0.1254,0.1255,0.1249,0,0,0.126,0.126,0,0,0,0,0,0,0,0,0.1103,0.1106,0.1144,0.1147,0.115,0.118,0.1168,0.1195,0.12,0.118,0.1202,0.1202,0.123,0.1233,0.1237,0.1252,0.1254,0.126,0.1261,0.1261,0.1262,0,0,0,0,0,0,0,0.1101,0.1105,0.1139,0.1145,0.1148,0.1158,0.1162,0.1173,0.1199,0.1182,0.1185,0.1191,0.1231,0.1236,0.1239,0.1255,0.126,0.1261,0.1262,0.1262,0.1351,0.1353,0,0,0,0,0,0,0.1098,0.1103,0.1138,0.1141,0.1129,0.1158,0.1163,0.1168,0.1199,0.1205,0.119,0.1193,0.1233,0.1237,0.1241,0.1312,0.1261,0.1262,0.1263,0.135,0.1352,0.1353,0,0,0,0,0,0,0.1097,0.11,0.1136,0.1124,0.1129,0.1158,0.1164,0.1169,0.12,0.1206,0.1212,0.122,0.1234,0.1239,0.1279,0.1312,0.1263,0.1264,0.1348,0.1351,0.1353,0.1406,0,0,0,0,0,0,0.1095,0.11,0.1116,0.1123,0.113,0.1162,0.1163,0.1169,0.1202,0.1206,0.1233,0.1237,0.1235,0.1277,0.128,0.1313,0.1265,0.1346,0.1349,0.1352,0.1402,0.141,0.1416,0,0,0,0,0,0.1093,0.1107,0.1116,0.1122,0.1147,0.1163,0.1168,0.1189,0.1203,0.122,0.1244,0.1237,0.1297,0.1279,0.1283,0.1316,0.1345,0.1348,0.1352,0.1399,0.1409,0.1416,0,0,0,0,0,0,0.1097,0.1112,0.1123,0.1142,0.1161,0.117,0.1192,0.1205,0.1236,0.125,0.1254,0.126,0.1308,0.1305,0.1285,0.1351,0.1321,0.1325,0.1356,0.1365,0.1372,0.1374,0.1267,0,0,0,0,0,0.1104,0.1121,0.1134,0.1154,0.1165,0.1184,0.12,0.1215,0.1237,0.1252,0.1272,0.1296,0.132,0.1338,0.1354,0.1389,0.1388,0.1414,0.1421,0.1427,0.1432,0.1462,0.1472,0.1365,0.1365,0.1365,0,0,0.1113,0.1124,0.1135,0.1157,0.1175,0.1196,0.1196,0.1228,0.1255,0.1252,0.1306,0.1323,0.1335,0.1376,0.1397,0.1382,0.1458,0.1432,0.1436,0.1439,0.1467,0.1477,0.1487,0.1367,0.1367,0.1366,0,0,0.1127,0.1148,0.1164,0.1182,0.1213,0.1224,0.1239,0.1266,0.1292,0.1336,0.1345,0.1385,0.1419,0.1436,0.1446,0.1502,0.1494,0.1513,0.1552,0.1581,0.159,0.1598,0.1611,0.1619,0.1517,0.1517,0.1517,0,0.1141,0.1158,0.1173,0.1193,0.1215,0.124,0.1265,0.129,0.1331,0.1358,0.1364,0.1436,0.1447,0.1495,0.1518,0.1518,0.1529,0.1517,0.159,0.1598,0.1605,0.1616,0.1625,0.152,0.152,0.1519,0.1519,0,0.1157,0.1184,0.1197,0.123,0.1256,0.1284,0.1315,0.1354,0.139,0.1416,0.1484,0.1505,0.1548,0.156,0.1557,0.1618,0.1607,0.1594,0.1566,0.1619,0.1627,0.1636,0.1524,0.1523,0.1522,0.1521,0,0,0.1152,0.1199,0.1208,0.1231,0.128,0.1299,0.1353,0.1402,0.1449,0.1496,0.1554,0.1601,0.1624,0.1637,0.1646,0.1672,0.1731,0.1661,0.1662,0.167,0.1793,0.167,0.1666,0.1735,0.1737,0.1738,0.1779,0,0.1163,0.1202,0.1228,0.1278,0.13,0.1344,0.1392,0.1445,0.1498,0.1561,0.1598,0.1659,0.165,0.1685,0.1712,0.1731,0.1755,0.1721,0.1744,0.1745,0.1625,0.1673,0.1744,0.1784,0.1786,0.1788,0.1789,0,0.1165,0.1193,0.1238,0.1301,0.1318,0.1359,0.1444,0.1492,0.1578,0.1624,0.1689,0.1721,0.1783,0.1763,0.1822,0.1804,0.1807,0.181,0.1811,0.1682,0.1636,0.1722,0.1803,0.1802,0.1801,0.18,0.1799,0,0.1137,0.1199,0.1238,0.1259,0.1333,0.1377,0.1429,0.1517,0.1571,0.1676,0.1726,0.1796,0.1845,0.1866,0.1878,0.1864,0.1925,0.1902,0.179,0.1782,0.1856,0.1847,0.1938,0.1938,0.1938,0.1938,0.1938,0,0.112,0.1154,0.1234,0.1253,0.1316,0.1378,0.146,0.1523,0.1623,0.1683,0.1763,0.181,0.1877,0.1912,0.1908,0.1871,0.1952,0.1803,0.1787,0.1877,0.187,0.1861,0.1852,0.1939,0.1939,0.1939,0.1938,0,0.1072,0.1125,0.1174,0.1265,0.1302,0.135,0.147,0.1521,0.163,0.171,0.1748,0.1847,0.1888,0.1925,0.1963,0.1898,0.1882,0.1847,0.1945,0.1933,0.1712,0.1705,0.1727,0.1723,0.1719,0.1716,0.1714,0,0.1045,0.1067,0.1171,0.1207,0.1254,0.134,0.1394,0.1514,0.1564,0.1707,0.1726,0.1819,0.1862,0.1816,0.1866,0.185,0.1821,0.1801,0.1749,0.171,0.1693,0.1691,0.1689,0.1709,0.1708,0.1707,0.1706,0,0.0992,0.1043,0.1082,0.1157,0.1222,0.1282,0.1369,0.14,0.1525,0.1635,0.1661,0.168,0.172,0.1735,0.1738,0.1721,0.1808,0.1765,0.1771,0.1722,0.1688,0.1674,0.1676,0.1695,0.1696,0.1697,0.1698,0,0.0957,0.0969,0.1031,0.1088,0.1163,0.1195,0.1257,0.1307,0.1371,0.152,0.1523,0.1611,0.1701,0.1668,0.167,0.1648,0.1615,0.1548,0.1565,0.1578,0.1509,0.1443,0.1365,0,0,0,0,0,0.0909,0.0911,0.0957,0.1006,0.1075,0.1115,0.1219,0.1281,0.1402,0.1378,0.1447,0.1471,0.1481,0.1528,0.1473,0.1604,0.1624,0.1533,0.1557,0.163,0.1644,0.1574,0,0,0,0,0,0,0.0875,0.0906,0.092,0.0924,0.094,0.0999,0.1059,0.1144,0.1139,0.1266,0.1278,0.1367,0.1399,0.1485,0.1436,0.145,0.1431,0.159,0.1586,0.1623,0.1635,0.1646,0.1579,0,0,0,0,0]},{"header":{"parameterUnit":"m.s-1","parameterCategory":2,"la1":30.2991,"la2":30.254,"lo1":-89.0895,"lo2":-89.0444,"dy":0.0017,"dx":0.0017,"nx":28,"ny":28,"refTime":"2025-02-12T09:00:00:Z","depth":"4","parameterNumber":3,"parameterNumberName":"V-component_of_CURRENTS"},"data":[0,0,0,0,0,0,0,0,0,0,0,0,0,0,0,0,0,0,0,0,0,0,0,0,0,0,0,0,0,0,0,0,0,0,0,0,0,0,0,0,0,0,0,0,0,0,0,0,0,0,0,0,0,0,0,0,0,0,0.0269,0.0268,0,0.0253,0.0253,0.0253,0.0246,0.0246,0.0246,0.0246,0.023,0.0229,0.0229,0,0,0,0,0,0,0,0,0,0,0,0,0,0.0269,0.0269,0.0269,0.0268,0.0268,0.0253,0.0253,0.0253,0.0246,0.0246,0.0246,0.0246,0.023,0.0229,0.0229,0,0,0,0,0,0,0,0,0,0,0,0,0,0.0263,0.0269,0.0269,0.0263,0.0262,0.0253,0.0253,0.0253,0.0246,0.0246,0.0246,0.0246,0.023,0.0229,0.0229,0.0224,0,0,0.0226,0.0226,0,0,0,0,0,0,0,0,0.0263,0.0263,0.0264,0.0263,0.0263,0.0252,0.0247,0.0243,0.0246,0.0252,0.0246,0.0246,0.0237,0.0235,0.0233,0.0223,0.0223,0.0226,0.0226,0.0226,0.0226,0,0,0,0,0,0,0,0.0264,0.0263,0.0263,0.0264,0.0263,0.0253,0.0253,0.0246,0.0245,0.0252,0.0251,0.0249,0.0236,0.0233,0.0232,0.0222,0.0226,0.0226,0.0225,0.0225,0.0206,0.0206,0,0,0,0,0,0,0.0267,0.0264,0.0263,0.0262,0.0263,0.0253,0.0253,0.0255,0.0245,0.0243,0.0249,0.0249,0.0235,0.0233,0.0232,0.0231,0.0226,0.0225,0.0225,0.0206,0.0206,0.0206,0,0,0,0,0,0,0.0267,0.0267,0.0264,0.0262,0.0261,0.0253,0.0256,0.0255,0.0254,0.0243,0.0241,0.025,0.0234,0.0233,0.0229,0.023,0.0225,0.0224,0.0206,0.0206,0.0206,0.0227,0,0,0,0,0,0,0.0267,0.0267,0.0271,0.0263,0.0261,0.0264,0.0256,0.0255,0.0253,0.0252,0.0243,0.0241,0.0234,0.023,0.0229,0.0229,0.0224,0.0206,0.0206,0.0206,0.0226,0.0227,0.0228,0,0,0,0,0,0.0267,0.0274,0.0272,0.0272,0.0267,0.0264,0.0263,0.0257,0.0253,0.0255,0.0248,0.0242,0.0227,0.023,0.0228,0.0228,0.0206,0.0206,0.0206,0.0226,0.0227,0.0228,0,0,0,0,0,0,0.0274,0.0273,0.0271,0.0277,0.0273,0.0263,0.0264,0.0259,0.0255,0.0254,0.0243,0.0241,0.0237,0.0229,0.0232,0.0221,0.0215,0.0214,0.0231,0.0232,0.0233,0.0244,0.0223,0,0,0,0,0,0.0278,0.0285,0.0279,0.0283,0.0282,0.0273,0.0271,0.0267,0.0261,0.0259,0.0252,0.0242,0.0234,0.0231,0.0223,0.0219,0.0203,0.0217,0.0218,0.0219,0.0225,0.0198,0.0197,0.0205,0.0205,0.0205,0,0,0.0282,0.0282,0.0286,0.0285,0.0281,0.0286,0.0272,0.0271,0.0275,0.0258,0.026,0.0247,0.0234,0.0229,0.0227,0.0224,0.0206,0.0218,0.0219,0.0226,0.0197,0.0197,0.0196,0.0205,0.0205,0.0205,0,0,0.0295,0.0293,0.0304,0.0303,0.03,0.0295,0.0296,0.0288,0.0285,0.0283,0.027,0.0258,0.0248,0.0238,0.0231,0.0233,0.0213,0.0228,0.0243,0.0216,0.0215,0.0214,0.0188,0.0185,0.0229,0.0229,0.0229,0,0.03,0.0314,0.0305,0.0314,0.0319,0.0302,0.0315,0.0307,0.0299,0.0298,0.0288,0.0266,0.0252,0.0246,0.0245,0.0236,0.0217,0.0241,0.0218,0.0217,0.0215,0.0188,0.0184,0.023,0.0229,0.0229,0.0229,0,0.032,0.0332,0.0337,0.0347,0.0348,0.0355,0.0346,0.0343,0.0334,0.0327,0.0316,0.029,0.0279,0.0267,0.0258,0.0244,0.0232,0.0222,0.0216,0.0216,0.0187,0.0183,0.0231,0.0231,0.023,0.023,0,0,0.0334,0.035,0.0354,0.0368,0.0368,0.0374,0.0375,0.0377,0.0385,0.0359,0.0361,0.0334,0.0316,0.0307,0.0285,0.0259,0.0229,0.024,0.0238,0.0217,0.0168,0.0159,0.0153,0.0214,0.0214,0.0213,0.015,0,0.0356,0.0387,0.0386,0.0415,0.0431,0.0419,0.0426,0.0422,0.0413,0.0408,0.0369,0.0363,0.0332,0.0326,0.0293,0.025,0.0219,0.0247,0.0169,0.0166,0.0162,0.0148,0.0212,0.0146,0.0145,0.0144,0.0144,0,0.038,0.0399,0.0434,0.0458,0.0464,0.0476,0.0489,0.0494,0.0477,0.0468,0.0445,0.0415,0.0376,0.0347,0.0265,0.0284,0.023,0.0188,0.0185,0.0169,0.015,0.0147,0.0135,0.0136,0.0137,0.0137,0.0138,0,0.0404,0.0434,0.0467,0.0475,0.0496,0.0508,0.0518,0.0515,0.0529,0.0509,0.0509,0.0454,0.043,0.0354,0.0266,0.0265,0.0169,0.0157,0.0095,0.0093,0.0112,0.0113,0.0094,0.0094,0.0095,0.0095,0.0095,0,0.043,0.0458,0.0483,0.0503,0.0544,0.0542,0.0582,0.0579,0.0582,0.0601,0.0546,0.0538,0.0431,0.0362,0.0276,0.0173,0.0175,0.0096,0.0076,0.0121,0.0125,0.0108,0.0111,0.0092,0.0093,0.0093,0.0094,0,0.0454,0.047,0.0513,0.0545,0.056,0.059,0.0633,0.0659,0.0652,0.0671,0.0666,0.0601,0.051,0.0397,0.0271,0.0194,0.0092,0.0054,0.0111,0.0096,0.003,0.0035,-0.0021,-0.0022,-0.0023,-0.0023,-0.0024,0,0.047,0.0496,0.055,0.0582,0.0601,0.0648,0.0682,0.0695,0.0722,0.0709,0.0716,0.0637,0.0578,0.0393,0.0272,0.01,0.0074,0.0017,0.002,0.0032,0.0018,0.0024,0.0029,-0.0025,-0.0025,-0.0025,-0.0026,0,0.0504,0.0524,0.0561,0.0627,0.0673,0.0728,0.0772,0.0793,0.0802,0.0797,0.0752,0.065,0.0545,0.0396,0.0261,0.0139,0.0052,0.0009,0.0009,0.0012,0.0027,0.0015,0.0021,-0.0028,-0.0028,-0.0027,-0.0027,0,0.0531,0.0563,0.0613,0.0669,0.073,0.0782,0.0805,0.0823,0.0841,0.0813,0.0798,0.0675,0.0603,0.0417,0.0295,0.0171,0.0137,0.0091,0.0086,0.0087,0.0136,0.0172,0.0144,0,0,0,0,0,0.0555,0.0594,0.0651,0.0714,0.0772,0.0811,0.0855,0.0868,0.087,0.0843,0.0819,0.0717,0.0525,0.0445,0.0319,0.0282,0.0119,0.013,0.0065,-0.0042,-0.0039,-0.0002,0,0,0,0,0,0,0.0574,0.0631,0.0656,0.0737,0.0786,0.0855,0.0886,0.0889,0.0868,0.0845,0.0748,0.0685,0.0505,0.0603,0.032,0.0282,0.0221,0.004,0.0037,-0.0043,-0.0041,-0.0038,0.0,0,0,0,0,0]}]]